{"data":{"norad_id":57454,"intl_designator":"2023-106C","name":"YAOGAN-36 05B","alt_names":[],"object_type":"PAYLOAD","status":"ACTIVE","operator":null,"country":"PRC","launch_date":"2023-07-26","launch_site_code":"XICLF","launch_vehicle":null,"mission":null,"orbit_class":"UNKNOWN","rcs_meters":null,"size_class":null,"mass_kg":null,"dimensions":null,"purposes":[],"wikipedia_slug":null,"has_3d_model":false,"image_url":null,"decayed_at":null,"tle_current":{"epoch":"2026-09-21T22:09:25.064928Z","epoch_age_seconds":84757,"freshness":"FRESH","line1":"1 57454U 23106C   26264.92320677  .00003689  00000+0  18123-3 0  9996","line2":"2 57454  34.9934 197.9700 0022706 247.9045 111.9257 15.17312319175563","mean_motion":15.17312319,"eccentricity":0.0022706,"inclination_deg":34.9934,"raan_deg":197.97,"arg_perigee_deg":247.9045,"mean_anomaly_deg":111.9257,"bstar":0.00018123,"rev_number":17556,"period_min":94.904653575148,"perigee_km":498.318261644,"apogee_km":529.61668648162,"semimajor_km":6892.1044740628,"source":"CELESTRAK","updated_at":"2026-09-22T09:00:26.197480Z"}}}